www.pogodaiklimat.ru
ПОГОДА в Франсистауне

Архив погоды в Франсистауне (Ботсвана)

Время
(UTC), дата
16 21.11
17 21.11
18 21.11
19 21.11
20 21.11
21 21.11
22 21.11
00 22.11
02 22.11
03 22.11
04 22.11
05 22.11
06 22.11
07 22.11
08 22.11
09 22.11
10 22.11
11 22.11
12 22.11
13 22.11
14 22.11
15 22.11
16 22.11
18 22.11
19 22.11
20 22.11
21 22.11
22 22.11
00 23.11
01 23.11
03 23.11
04 23.11
05 23.11
06 23.11
07 23.11
08 23.11
09 23.11
10 23.11
11 23.11
12 23.11
13 23.11
14 23.11
15 23.11
16 23.11
17 23.11
18 23.11
19 23.11
21 23.11
22 23.11
01 24.11
02 24.11
03 24.11
04 24.11
05 24.11
06 24.11
08 24.11
09 24.11
10 24.11
11 24.11
12 24.11
13 24.11
14 24.11
15 24.11
16 24.11
17 24.11
18 24.11
19 24.11
21 24.11
22 24.11
03 25.11
04 25.11
05 25.11
06 25.11
07 25.11
08 25.11
09 25.11
10 25.11
11 25.11
13 25.11
14 25.11
15 25.11
16 25.11
17 25.11
18 25.11
19 25.11
21 25.11
22 25.11
03 26.11
04 26.11
05 26.11
06 26.11
07 26.11
09 26.11
10 26.11
11 26.11
13 26.11
14 26.11
15 26.11
17 26.11
18 26.11
19 26.11
20 26.11
21 26.11
22 26.11
23 26.11
00 27.11
01 27.11
02 27.11
03 27.11
05 27.11
06 27.11
07 27.11
08 27.11
09 27.11
10 27.11
11 27.11
12 27.11
13 27.11
14 27.11
15 27.11
16 27.11
17 27.11
18 27.11
19 27.11
20 27.11
21 27.11
22 27.11
23 27.11
01 28.11
04 28.11
05 28.11
06 28.11
07 28.11
09 28.11
10 28.11
11 28.11
12 28.11
13 28.11
Ветер
(напр.,м/с)
Видим. Явления Облачность Т
(С)
Тd
(С)
f
(%)
Тe
(С)
Тes
(С)
Комфортность P
(гПа)
Po
(гПа)
Тmin
(С)
Tmax
(С)
R
(мм)
R24
(мм)
S
(см)
В 3 10 км нет нижн обл +28.0 +16.0 48 +31 +31 душно 1015.0 905.0
В 3 10 км нет нижн обл +26.0 +16.0 54 +29 +29 душно 1015.0 904.3
В 3 10 км нет нижн обл +25.0 +16.0 57 +28 +28 жарко 1015.0 904.0
В 2 10 км нет нижн обл +23.0 +16.0 65 +27 +27 душно 1016.0 904.1
В 2 10 км нет нижн обл +22.0 +16.0 69 +26 +26 душно 1017.0 904.7
ЮВ 3 10 км нет нижн обл +22.0 +16.0 69 +26 +26 душно 1017.0 904.7
В 3 10 км нет нижн обл +22.0 +16.0 69 +26 +26 душно 1017.0 904.7
ЮВ 3 10 км нет нижн обл +20.0 +16.0 78 +23 +23 комфорт 1015.0 902.2
нст 1 10 км нет нижн обл +19.0 +15.0 78 +21 +21 комфорт 1015.0 901.8
В 2 10 км нет нижн обл +19.0 +15.0 78 +21 +21 комфорт 1016.0 902.6
ЮВ 2 10 км гроза без осадков 2/2 600 м
[Cb]
+19.0 +16.0 83 +21 +21 комфорт 1016.0 902.7
В 2 10 км гроза без осадков 2/2 600 м
[Cb]
+21.0 +16.0 73 +25 +25 комфорт 1016.0 903.4
В 2 10 км гроза без осадков 5/5 600 м
[Cb]
+21.0 +16.0 73 +25 +25 комфорт 1017.0 904.3
ЮЗ 2 10 км гроза без осадков 5/5 600 м
[Cb]
+21.0 +17.0 78 +26 +26 душно 1019.0 906.1
ЮЗ 7 10 км гроза, ливневой дождь 8/8 600 м
[Cb]
+19.0 +16.0 83 +20 +20 1020.0 906.2
ЮЗ 3 10 км гроза, ливневой дождь 8/8 600 м
[Cb]
+18.0 +17.0 94 +18 +18 1020.0 905.9
СЗ 3 10 км гроза, ливневой дождь 8/8 600 м
[Cb]
+18.0 +17.0 94 +18 +18 1020.0 905.9
ЮВ 2 10 км гроза без осадков 8/8 600 м
[Cb]
+19.0 +17.0 88 +21 +21 комфорт 1017.0 903.6
В 3 10 км гроза без осадков 8/8 600 м
[Cb]
+20.0 +16.0 78 +23 +23 комфорт 1016.0 903.1
В 4 10 км 8/8 600 м +22.0 +19.0 83 +27 +27 душно 1015.0 903.0
В 4 10 км 8/8 600 м +23.0 +18.0 73 +28 +28 душно 1015.0 903.4
В 3 10 км 5/5 750 м +23.0 +18.0 73 +28 +28 душно 1015.0 903.4
В 3 10 км 5/2 750 м
[Ac]
+23.0 +17.0 69 +28 +28 душно 1015.0 903.3
СВ 3 10 км нет нижн обл +19.0 +18.0 94 +21 +21 комфорт 1017.0 903.7
С 3 10 км нет нижн обл +19.0 +17.0 88 +21 +21 комфорт 1017.0 903.6
С 2 10 км нет нижн обл +19.0 +17.0 88 +21 +21 комфорт 1018.0 904.5
З 1 10 км нет нижн обл +18.0 +17.0 94 +19 +19 1018.0 904.1
З 1 10 км нет нижн обл +17.0 +16.0 94 +18 +18 1017.0 902.8
нст 1 10 км нет нижн обл +17.0 +16.0 94 +18 +18 1016.0 901.9
С 2 10 км нет нижн обл +16.0 +16.0 100 +16 +16 1016.0 901.6
С 2 10 км нет нижн обл +16.0 +16.0 100 +16 +16 1017.0 902.5
Ю 1 10 км нет нижн обл +16.0 +16.0 100 +17 +17 1017.0 902.5
ЮВ 3 10 км нет нижн обл +19.0 +18.0 94 +21 +21 комфорт 1018.0 904.6
В 2 10 км нет нижн обл +23.0 +18.0 73 +28 +28 душно 1019.0 906.9
В 3 10 км нет нижн обл +26.0 +17.0 58 +30 +30 душно 1019.0 907.9
нст 3 10 км нет нижн обл +28.0 +17.0 51 +32 +32 душно 1019.0 908.6
С 3 10 км 2/2 900 м +29.0 +16.0 45 +32 +32 душно 1018.0 908.1
нст 2 10 км 5/5 900 м +31.0 +15.0 38 +33 +33 душно 1018.0 908.7
СЗ 3 10 км 5/5 900 м +32.0 +16.0 38 +35 +35 очень
душно
1017.0 908.2
нст 2 10 км 5/5 900 м +32.0 +13.0 31 +33 +33 жарко 1015.0 906.3
СЗ 4 10 км 5/5 900 м +32.0 +15.0 36 +34 +34 душно 1014.0 905.5
В 5 10 км 5/5 900 м +29.0 +15.0 43 +32 +32 душно 1014.0 904.4
В 4 10 км 2/2 900 м +31.0 +14.0 36 +33 +33 душно 1013.0 904.2
ЮВ 3 10 км 2/2 900 м +30.0 +14.0 38 +32 +32 жарко 1014.0 904.7
ЮВ 2 10 км 2/2 750 м +26.0 +14.0 48 +28 +28 жарко 1015.0 904.2
нст 1 10 км 2/2 750 м +24.0 +15.0 57 +27 +27 жарко 1015.0 903.6
нст 1 10 км 2/2 750 м +22.0 +16.0 69 +26 +26 душно 1016.0 903.8
С 2 10 км нет нижн обл +21.0 +17.0 78 +26 +26 душно 1017.0 904.4
СВ 2 10 км нет нижн обл +21.0 +17.0 78 +26 +26 душно 1017.0 904.4
С 2 10 км нет нижн обл +19.0 +17.0 88 +21 +21 комфорт 1016.0 902.7
нст 1 10 км нет нижн обл +18.0 +17.0 94 +19 +19 1016.0 902.4
нст 1 10 км нет нижн обл +17.0 +16.0 94 +18 +18 1017.0 902.8
нст 1 10 км нет нижн обл +18.0 +17.0 94 +19 +19 1017.0 903.3
В 2 10 км нет нижн обл +22.0 +17.0 73 +26 +26 душно 1018.0 905.6
СВ 2 10 км нет нижн обл +24.0 +18.0 69 +28 +28 душно 1018.0 906.4
СВ 3 10 км нет нижн обл +28.0 +17.0 51 +32 +32 душно 1018.0 907.7
нст 2 10 км 2/2 900 м +30.0 +17.0 46 +34 +34 очень
душно
1018.0 908.4
нст 2 10 км 5/5 900 м +31.0 +17.0 43 +35 +35 очень
душно
1017.0 907.9
нст 2 10 км 5/5 900 м +32.0 +17.0 41 +36 +36 очень
душно
1016.0 907.3
нст 3 10 км 5/5 900 м +33.0 +15.0 34 +35 +35 душно 1014.0 905.8
Ю 4 10 км 5/5 900 м +32.0 +13.0 31 +33 +33 жарко 1014.0 905.4
ЮВ 8-13 10 км гроза без осадков 5/5 900 м
[Cb]
+33.0 +14.0 32 +34 +34 очень
жарко
1013.0 904.9
С 6 10 км гроза без осадков 2/2 900 м
[Cb]
+30.0 +15.0 40 +32 +32 жарко 1014.0 904.8
С 3 10 км гроза без осадков 2/2 900 м
[Cb]
+27.0 +16.0 51 +30 +30 душно 1014.0 903.8
С 2 10 км 2/2 750 м +25.0 +16.0 57 +28 +28 жарко 1015.0 904.0
З 2 10 км нет нижн обл +24.0 +16.0 61 +27 +27 жарко 1016.0 904.5
З 3 10 км нет нижн обл +24.0 +17.0 65 +28 +28 душно 1016.0 904.6
нст 1 10 км нет нижн обл +21.0 +17.0 78 +26 +26 душно 1017.0 904.4
С 1 10 км нет нижн обл +20.0 +17.0 83 +24 +24 комфорт 1017.0 904.0
С 1 10 км нет нижн обл +16.0 +15.0 94 +17 +17 1017.0 902.4
С 1 10 км нет нижн обл +16.0 +16.0 100 +17 +17 1017.0 902.5
С 2 10 км нет нижн обл +22.0 +17.0 73 +26 +26 душно 1018.0 905.6
Ю 2 10 км нет нижн обл +25.0 +17.0 61 +29 +29 душно 1018.0 906.7
нст 2 10 км нет нижн обл +28.0 +16.0 48 +31 +31 душно 1018.0 907.7
С 4 10 км нет нижн обл +29.0 +16.0 45 +32 +32 душно 1018.0 908.1
С 3 10 км 2/2 900 м +31.0 +15.0 38 +33 +33 душно 1018.0 908.7
нст 2 10 км 5/5 900 м +32.0 +13.0 31 +33 +33 жарко 1017.0 908.1
нст 2 10 км 5/5 900 м +33.0 +12.0 28 +33 +33 жарко 1016.0 907.5
нст 3-8 10 км 5/5 900 м +34.0 +12.0 26 +34 +34 очень
жарко
1013.0 905.1
В 3 10 км 5/5 900 м +34.0 +11.0 25 +34 +34 очень
жарко
1013.0 905.1
В 4 10 км 5/5 900 м +34.0 +10.0 23 +33 +33 жарко 1012.0 904.2
В 4 10 км 5/5 900 м +32.0 +12.0 29 +32 +32 жарко 1013.0 904.5
Ю 3 10 км гроза без осадков 8/8 900 м
[Cb]
+29.0 +14.0 40 +31 +31 жарко 1014.0 904.4
В 6 10 км гроза без осадков 8/8 900 м
[Cb]
+29.0 +11.0 33 +30 +30 жарко 1016.0 906.1
СВ 4 10 км гроза без осадков 5/5 900 м
[Cb]
+29.0 +12.0 35 +30 +30 жарко 1017.0 907.0
ЮВ 6 10 км 5/5 900 м
[Ac]
+25.0 +16.0 57 +28 +28 жарко 1018.0 906.6
ЮВ 5 10 км 5/5 900 м
[Ac]
+24.0 +16.0 61 +27 +27 жарко 1018.0 906.3
ЮВ 3 10 км нет нижн обл +22.0 +16.0 69 +26 +26 душно 1018.0 905.6
ЮВ 4 10 км нет нижн обл +21.0 +16.0 73 +25 +25 комфорт 1018.0 905.2
ЮВ 4 10 км нет нижн обл +22.0 +16.0 69 +26 +26 душно 1018.0 905.6
В 4 10 км нет нижн обл +22.0 +16.0 69 +26 +26 душно 1018.0 905.6
ЮВ 4 10 км нет нижн обл +23.0 +17.0 69 +28 +28 душно 1019.0 906.9
В 2 10 км 5/5 750 м
[Ac]
+27.0 +18.0 58 +32 +32 очень
душно
1018.0 907.4
Ю 3 10 км гроза без осадков 8/8 900 м
[Cb]
+28.0 +17.0 51 +32 +32 душно 1017.0 906.9
З 4 10 км гроза без осадков 8/8 900 м
[Cb]
+28.0 +17.0 51 +32 +32 душно 1015.0 905.1
СЗ 8-16 10 км гроза, ливневой дождь 8/8 900 м
[Cb]
+19.0 +17.0 88 +20 +20 1016.0 902.7
СВ 2 10 км гроза, ливневой дождь 8/8 900 м
[Cb]
+19.0 +18.0 94 +21 +21 комфорт 1016.0 902.8
ЮВ 2 10 км 5/5 750 м +19.0 +18.0 94 +21 +21 комфорт 1016.0 902.8
СВ 3 10 км 8/8 750 м +18.0 +17.0 94 +18 +18 1016.0 902.4
С 3 10 км 8/8 750 м +18.0 +17.0 94 +18 +18 1015.0 901.5
нст 1 10 км 5/5 600 м +18.0 +17.0 94 +19 +19 1015.0 901.5
Ю 2 10 км нет нижн обл +18.0 +18.0 100 +19 +19 1016.0 902.4
ЮВ 2 10 км нет нижн обл +19.0 +18.0 94 +21 +21 комфорт 1016.0 902.8
ЮВ 3 10 км нет нижн обл +18.0 +18.0 100 +18 +18 1016.0 902.4
ЮВ 3 10 км 8/8 600 м +18.0 +18.0 100 +18 +18 1016.0 902.4
ЮВ 2 10 км 8/8 600 м +18.0 +18.0 100 +19 +19 1015.0 901.5
ЮВ 3 10 км 10/10 600 м +18.0 +18.0 100 +18 +18 1015.0 901.5
В 2 10 км 10/10 450 м +19.0 +18.0 94 +21 +21 комфорт 1015.0 901.9
ЮВ 3 10 км 10/10 450 м +19.0 +18.0 94 +21 +21 комфорт 1015.0 901.9
В 4 10 км слаб. дождь 10/10 450 м
[Ns]
+19.0 +18.0 94 +21 +21 комфорт 1016.0 902.8
В 3 10 км 10/10 450 м +20.0 +19.0 94 +24 +24 комфорт 1016.0 903.2
ЮВ 3 10 км 10/10 600 м +20.0 +19.0 94 +24 +24 комфорт 1017.0 904.1
Ю 2 10 км слаб. дождь 10/10 600 м
[Ns]
+20.0 +19.0 94 +24 +24 комфорт 1017.0 904.1
Ю 6 10 км 8/8 600 м +17.0 +16.0 94 +16 +16 1017.0 902.8
Ю 5 10 км 10/10 600 м +17.0 +16.0 94 +16 +16 1017.0 902.8
ЮВ 5 10 км 8/8 600 м +18.0 +17.0 94 +18 +18 1014.0 900.6
ЮВ 2 10 км 8/8 600 м +19.0 +18.0 94 +21 +21 комфорт 1014.0 901.0
СВ 2 10 км 8/8 600 м +19.0 +18.0 94 +21 +21 комфорт 1013.0 900.1
С 3 10 км 5/5 600 м +20.0 +18.0 88 +23 +23 комфорт 1013.0 900.5
С 3 10 км 5/5 600 м +21.0 +18.0 83 +26 +26 душно 1013.0 900.9
С 2 10 км 5/5 750 м +20.0 +18.0 88 +24 +24 комфорт 1013.0 900.5
СВ 2 10 км 2/2 750 м +19.0 +18.0 94 +21 +21 комфорт 1013.0 900.1
СВ 2 10 км 2/2 750 м +19.0 +18.0 94 +21 +21 комфорт 1013.0 900.1
СВ 1 10 км 2/2 750 м +18.0 +18.0 100 +19 +19 1014.0 900.6
СВ 2 10 км 2/2 750 м +18.0 +18.0 100 +19 +19 1015.0 901.5
С 1 10 км 5/5 750 м +18.0 +17.0 94 +19 +19 1015.0 901.5
СВ 1 10 км 5/5 750 м +18.0 +18.0 100 +19 +19 1015.0 901.5
ЮВ 1 10 км нет нижн обл +18.0 +18.0 100 +19 +19 1015.0 901.5
нст 1 10 км нет нижн обл +18.0 +18.0 100 +19 +19 1015.0 901.5
В 2 10 км 8/8 450 м +19.0 +18.0 94 +21 +21 комфорт 1016.0 902.8
В 3 10 км 8/8 600 м +19.0 +18.0 94 +21 +21 комфорт 1016.0 902.8
В 4 10 км 8/8 600 м +20.0 +18.0 88 +23 +23 комфорт 1016.0 903.2
В 4 10 км 8/8 600 м +22.0 +18.0 78 +27 +27 душно 1016.0 903.9
В 5 10 км 8/8 600 м +24.0 +18.0 69 +28 +28 душно 1016.0 904.6
В 7 10 км 8/8 750 м +24.0 +19.0 74 +29 +29 душно 1016.0 904.7
В 6 10 км 5/5 750 м +24.0 +18.0 69 +28 +28 душно 1016.0 904.6
В 6 10 км 5/5 750 м +25.0 +18.0 65 +29 +29 душно 1018.0 906.7
В 6 10 км 8/8 750 м +25.0 +17.0 61 +29 +29 душно 1014.0 903.1
Местоположение метеостанции Франсистаун (Ботсвана): широта -21.16 долгота 27.48 высота над уровнем моря 1009 м.
В архиве по умолчанию представлена погода в Франсистауне за последнюю неделю. Архивные данные за месяц целиком и за предыдущие месяцы, начиная с января 2011 года, Вы можете получить, выбрав интересующий диапазон дат из раскрывающегося списка и нажав кнопку "Найти!".
*Определитесь, кто Вы:
Внимание! Время в таблицах - всемирное. Для получения местного времени необходимо прибавить поправку, которая равна 2 ч.
Смотрите также архив погоды в соседних городах и на ближайших метеорологических станциях:
Партнеры нашего сайта:      
Пояснения к столбцам:
  • Ветер - указаны скорость ветра в м/с - средняя за 10 мин, порывы в срок и между сроками (в фигурных скобках) и направление, откуда дует ветер: С - северный,
  • СВ - северо-восточный, В - восточный, ЮВ - юго-восточный, Ю - южный, ЮЗ - юго-западный, З - западный, СЗ - северо-западный.
  • Видимость - горизонтальная дальность видимости в метрах или километрах. При видимости от 1 до 10 км при отсутствии осадков обычно наблюдается дымка, при ухудшении видимости до 1 км и менее - туман. В сухую погоду видимость может ухудшаться дымом, пылью или мглою.
  • Явления - указаны атмосферные явления, наблюдавшиеся в срок или в последний час перед сроком; фигурными скобками обозначены явления, наблюдавшиеся между сроками (за 1-3 часа до срока); квадратными скобками обозначены град или гололедные отложения с указанием их диаметра в мм.
  • Облачность - указаны через наклонную черту общая и нижняя облачность в баллах и высота нижней границы облаков в метрах; квадратными скобками обозначены формы облаков: Ci - перистые, Cs - перисто-слоистые, Cc - перисто-кучевые, Ac - высококучевые, As - высокослоистые, Sc - слоисто-кучевые, Ns - слоисто-дождевые, Cu - кучевые, Cb - кучево-дождевые. Подробнее классификацию облаков см. в Атласе облаков (PDF).
  • T - Температура воздуха - температура, измеренная на высоте 2 м над землей.
  • Td - Температура точки росы - температура, при понижении до которой содержащийся в воздухе водяной пар достигнет насыщения.
  • f - Относительная влажность воздуха - влажноcть воздуха, измеренная на высоте 2 м над землей.
  • Te - Эффективная температура - температура, которую ощущает одетый по сезону человек в тени. Характеристика душности погоды. При расчете учитывается влияние влажности воздуха и скорости ветра на теплоощущения человека.
  • Tes - Эффективная температура на солнце - температура, которую ощущает человек, с поправкой на солнечный нагрев. Характеристика знойности погоды. Зависит от высоты солнца над горизонтом, облачности и скорости ветра. Ночью, в пасмурную погоду, а также при ветре 12 м/с и более поправка равна нулю.
  • P - Атмосферное давление - приведенное к уровню моря атмосферное давление.
  • Po - Атмосферное давление - измеренное на уровне метеостанции атмосферное давление.
  • Tmin - Минимальная температура - минимум температуры воздуха на высоте 2 м над землей.
  • Tmax - Максимальная температура - максимум температуры воздуха на высоте 2 м над землей.
  • R - Количество осадков - Количество выпавших осадков за период времени, мм. При наведении курсора мыши на число - период времени, за который выпало указанное количество осадков.
  • R24 - Количество осадков - Количество выпавших осадков за 24 часа, мм.
  • S - Снежный покров - Высота снежного покрова, см. При наведении курсора мыши на число - состояние снежного покрова и степень покрытия местности в баллах.